Versión en castellano
places Weather data articles

Conditions at Mairena del Aljarafe, Sevilla, Spain
Year Month Day Show

  Date        time        Out Temp.    Out hum.   Wind Dir.    Wind speed   SL Pressure   In T. Today rain 

   22-09-2019    07:40      19.8º(----)     95%         -         0.0 km/h    1013.5 hpa     26.0º    1.8 mm
   22-09-2019    07:35      19.9º(----)     95%         -         0.0 km/h    1013.3 hpa     26.0º    1.8 mm
   22-09-2019    07:30      20.0º(----)     95%         -         0.0 km/h    1013.4 hpa     26.0º    1.8 mm
   22-09-2019    07:25      20.1º(----)     95%         -         0.0 km/h    1013.4 hpa     26.0º    1.8 mm
   22-09-2019    07:20      20.1º(----)     95%         -         0.0 km/h    1013.5 hpa     25.9º    1.8 mm
   22-09-2019    07:15      20.1º(----)     95%      247(SW)      1.6 km/h    1013.3 hpa     25.9º    1.8 mm
   22-09-2019    07:10      20.1º(----)     95%      247(SW)      1.6 km/h    1013.3 hpa     25.9º    1.8 mm
   22-09-2019    07:05      20.1º(----)     95%      202 (S)      1.6 km/h    1013.3 hpa     25.8º    1.5 mm
   22-09-2019    07:00      20.1º(----)     95%      225(SW)      3.2 km/h    1013.3 hpa     25.8º    1.5 mm
   22-09-2019    06:55      20.2º(----)     95%      225(SW)      3.2 km/h    1013.3 hpa     25.8º    1.5 mm
   22-09-2019    06:50      20.2º(----)     95%      180 (S)      4.8 km/h    1013.2 hpa     25.7º    1.3 mm
   22-09-2019    06:45      20.2º(----)     95%      045(NE)      3.2 km/h    1013.2 hpa     25.7º    1.0 mm
   22-09-2019    06:40      20.2º(----)     94%      045(NE)      4.8 km/h    1013.2 hpa     25.7º    1.0 mm
   22-09-2019    06:35      20.2º(----)     94%      180 (S)      3.2 km/h    1013.2 hpa     25.7º    1.0 mm
   22-09-2019    06:30      20.2º(----)     94%      225(SW)      3.2 km/h    1013.0 hpa     25.7º    0.8 mm
   22-09-2019    06:25      20.2º(----)     94%      202 (S)      4.8 km/h    1013.1 hpa     25.7º    0.5 mm
   22-09-2019    06:20      20.2º(----)     94%      112 (E)      4.8 km/h    1013.0 hpa     25.7º    0.5 mm
   22-09-2019    06:15      20.2º(----)     94%      180 (S)      3.2 km/h    1013.0 hpa     25.7º    0.5 mm
   22-09-2019    06:10      20.2º(----)     94%      090 (E)      1.6 km/h    1013.0 hpa     25.6º    0.3 mm
   22-09-2019    06:05      20.2º(----)     94%      067(NE)      3.2 km/h    1013.0 hpa     25.7º    0.0 mm
   22-09-2019    06:00      20.2º(----)     94%      067(NE)      3.2 km/h    1013.0 hpa     25.7º    0.0 mm
   22-09-2019    05:55      20.2º(----)     94%      067(NE)      3.2 km/h    1012.8 hpa     25.7º    0.0 mm
   22-09-2019    05:50      20.2º(----)     93%      090 (E)      3.2 km/h    1012.8 hpa     25.7º    0.0 mm
   22-09-2019    05:45      20.2º(----)     94%      112 (E)      3.2 km/h    1012.9 hpa     25.8º    0.0 mm
   22-09-2019    05:40      20.2º(----)     93%      045(NE)      3.2 km/h    1013.0 hpa     25.8º    0.0 mm
   22-09-2019    05:35      20.2º(----)     93%      112 (E)      3.2 km/h    1012.9 hpa     25.9º    0.0 mm
   22-09-2019    05:30      20.2º(----)     93%      067(NE)      3.2 km/h    1012.9 hpa     25.9º    0.0 mm
   22-09-2019    05:25      20.2º(----)     93%      157(SE)      3.2 km/h    1012.8 hpa     25.9º    0.0 mm
   22-09-2019    05:20      20.2º(----)     93%      090 (E)      3.2 km/h    1012.8 hpa     26.0º    0.0 mm
   22-09-2019    05:15      20.2º(----)     93%      090 (E)      3.2 km/h    1012.9 hpa     26.0º    0.0 mm
   22-09-2019    05:10      20.2º(----)     93%      090 (E)      3.2 km/h    1012.9 hpa     26.1º    0.0 mm
   22-09-2019    05:05      20.3º(----)     93%      090 (E)      1.6 km/h    1013.0 hpa     26.2º    0.0 mm
   22-09-2019    05:00      20.4º(----)     93%      270 (W)      1.6 km/h    1013.0 hpa     26.2º    0.0 mm
   22-09-2019    04:55      20.4º(----)     93%      112 (E)      1.6 km/h    1013.2 hpa     26.2º    0.0 mm
   22-09-2019    04:50      20.3º(----)     93%      135(SE)      1.6 km/h    1013.1 hpa     26.3º    0.0 mm
   22-09-2019    04:45      20.3º(----)     93%      225(SW)      1.6 km/h    1013.2 hpa     26.3º    0.0 mm
   22-09-2019    04:40      20.4º(----)     93%      180 (S)      1.6 km/h    1013.3 hpa     26.3º    0.0 mm
   22-09-2019    04:35      20.4º(----)     93%      202 (S)      1.6 km/h    1013.3 hpa     26.3º    0.0 mm
   22-09-2019    04:30      20.4º(----)     93%      157(SE)      1.6 km/h    1013.3 hpa     26.3º    0.0 mm
   22-09-2019    04:25      20.4º(----)     93%      180 (S)      1.6 km/h    1013.3 hpa     26.3º    0.0 mm
   22-09-2019    04:20      20.4º(----)     93%      090 (E)      1.6 km/h    1013.4 hpa     26.3º    0.0 mm
   22-09-2019    04:15      20.4º(----)     93%      180 (S)      3.2 km/h    1013.4 hpa     26.4º    0.0 mm
   22-09-2019    04:10      20.4º(----)     93%      180 (S)      1.6 km/h    1013.4 hpa     26.4º    0.0 mm
   22-09-2019    04:05      20.4º(----)     93%      157(SE)      3.2 km/h    1013.5 hpa     26.4º    0.0 mm
   22-09-2019    04:00      20.4º(----)     93%      090 (E)      1.6 km/h    1013.5 hpa     26.5º    0.0 mm
   22-09-2019    03:55      20.4º(----)     93%      157(SE)      1.6 km/h    1013.6 hpa     26.6º    0.0 mm
   22-09-2019    03:50      20.3º(----)     93%      180 (S)      1.6 km/h    1013.7 hpa     26.6º    0.0 mm
   22-09-2019    03:45      20.3º(----)     93%      157(SE)      1.6 km/h    1013.7 hpa     26.6º    0.0 mm
   22-09-2019    03:40      20.3º(----)     93%      157(SE)      3.2 km/h    1013.8 hpa     26.6º    0.0 mm
   22-09-2019    03:35      20.3º(----)     94%      157(SE)      1.6 km/h    1013.8 hpa     26.6º    0.0 mm
   22-09-2019    03:30      20.3º(----)     94%      067(NE)      1.6 km/h    1013.9 hpa     26.6º    0.0 mm
   22-09-2019    03:25      20.4º(----)     94%      157(SE)      1.6 km/h    1013.9 hpa     26.6º    0.0 mm
   22-09-2019    03:20      20.4º(----)     94%      067(NE)      1.6 km/h    1013.9 hpa     26.6º    0.0 mm
   22-09-2019    03:15      20.4º(----)     94%      180 (S)      1.6 km/h    1013.9 hpa     26.6º    0.0 mm
   22-09-2019    03:10      20.4º(----)     94%         -         0.0 km/h    1013.9 hpa     26.6º    0.0 mm
   22-09-2019    03:05      20.3º(----)     94%      112 (E)      1.6 km/h    1014.0 hpa     26.7º    0.0 mm
   22-09-2019    03:00      20.3º(----)     94%      180 (S)      1.6 km/h    1013.9 hpa     26.7º    0.0 mm
   22-09-2019    02:55      20.3º(----)     94%         -         0.0 km/h    1013.9 hpa     26.7º    0.0 mm
   22-09-2019    02:50      20.3º(----)     94%      180 (S)      1.6 km/h    1013.9 hpa     26.7º    0.0 mm
   22-09-2019    02:45      20.3º(----)     94%         -         0.0 km/h    1014.0 hpa     26.7º    0.0 mm
   22-09-2019    02:40      20.3º(----)     94%         -         0.0 km/h    1014.0 hpa     26.7º    0.0 mm
   22-09-2019    02:35      20.3º(----)     94%         -         0.0 km/h    1013.9 hpa     26.7º    0.0 mm
   22-09-2019    02:30      20.3º(----)     94%         -         0.0 km/h    1014.0 hpa     26.7º    0.0 mm
   22-09-2019    02:25      20.2º(----)     94%         -         0.0 km/h    1014.0 hpa     26.7º    0.0 mm
   22-09-2019    02:20      20.3º(----)     94%         -         0.0 km/h    1013.9 hpa     26.7º    0.0 mm
   22-09-2019    02:15      20.3º(----)     94%         -         0.0 km/h    1013.9 hpa     26.7º    0.0 mm
   22-09-2019    02:10      20.3º(----)     94%         -         0.0 km/h    1013.9 hpa     26.7º    0.0 mm
   22-09-2019    02:05      20.3º(----)     93%         -         0.0 km/h    1013.9 hpa     26.7º    0.0 mm
   22-09-2019    02:00      20.3º(----)     93%         -         0.0 km/h    1013.9 hpa     26.7º    0.0 mm
   22-09-2019    01:55      20.3º(----)     93%         -         0.0 km/h    1013.8 hpa     26.7º    0.0 mm
   22-09-2019    01:50      20.3º(----)     93%         -         0.0 km/h    1013.7 hpa     26.7º    0.0 mm
   22-09-2019    01:45      20.3º(----)     93%         -         0.0 km/h    1013.8 hpa     26.8º    0.0 mm
   22-09-2019    01:40      20.3º(----)     93%      180 (S)      1.6 km/h    1013.8 hpa     26.8º    0.0 mm
   22-09-2019    01:35      20.3º(----)     93%         -         0.0 km/h    1013.9 hpa     26.8º    0.0 mm
   22-09-2019    01:30      20.3º(----)     93%         -         0.0 km/h    1013.8 hpa     26.8º    0.0 mm
   22-09-2019    01:25      20.3º(----)     93%         -         0.0 km/h    1013.9 hpa     26.8º    0.0 mm
   22-09-2019    01:20      20.4º(----)     93%         -         0.0 km/h    1014.0 hpa     26.8º    0.0 mm
   22-09-2019    01:15      20.4º(----)     93%         -         0.0 km/h    1014.2 hpa     26.8º    0.0 mm
   22-09-2019    01:10      20.4º(----)     93%         -         0.0 km/h    1014.1 hpa     26.8º    0.0 mm
   22-09-2019    01:05      20.4º(----)     93%         -         0.0 km/h    1014.1 hpa     26.8º    0.0 mm
   22-09-2019    01:00      20.4º(----)     93%         -         0.0 km/h    1014.1 hpa     26.8º    0.0 mm
   22-09-2019    00:55      20.4º(----)     93%         -         0.0 km/h    1014.1 hpa     26.8º    0.0 mm
   22-09-2019    00:50      20.4º(----)     93%         -         0.0 km/h    1014.1 hpa     26.8º    0.0 mm
   22-09-2019    00:45      20.4º(----)     93%         -         0.0 km/h    1014.1 hpa     26.8º    0.0 mm
   22-09-2019    00:40      20.5º(----)     93%      225(SW)      1.6 km/h    1014.1 hpa     26.7º    0.0 mm
   22-09-2019    00:35      20.5º(----)     93%      180 (S)      1.6 km/h    1014.1 hpa     26.7º    0.0 mm
   22-09-2019    00:30      20.6º(----)     92%         -         0.0 km/h    1014.1 hpa     26.7º    0.0 mm
   22-09-2019    00:25      20.6º(----)     92%      180 (S)      1.6 km/h    1014.1 hpa     26.7º    0.0 mm
   22-09-2019    00:20      20.6º(----)     92%         -         0.0 km/h    1014.1 hpa     26.7º    0.0 mm
   22-09-2019    00:15      20.6º(----)     92%      202 (S)      1.6 km/h    1014.1 hpa     26.7º    0.0 mm
   22-09-2019    00:10      20.7º(----)     92%      180 (S)      1.6 km/h    1014.1 hpa     26.7º    0.0 mm
   22-09-2019    00:05      20.7º(----)     92%         -         0.0 km/h    1014.2 hpa     26.7º    0.0 mm
   22-09-2019    00:00      20.7º(----)     92%      202 (S)      1.6 km/h    1014.1 hpa     26.7º    0.0 mm